Radiation Dose at Monitoring Post of Fukushima Daini Nuclear Power Station
Date,Time,MP-1(microSv/h),MP-2(microSv/h),MP-3(microSv/h),MP-4(microSv/h),MP-5(microSv/h),MP-6(microSv/h),MP-7(microSv/h),Wind Direction,Wind Velocity(m/s),Rain
2015/04/05,00:00,0.550,0.338,0.580,0.534,0.558,0.257,0.230,north-northwest,2.3,No
2015/04/05,00:10,0.551,0.341,0.577,0.534,0.559,0.255,0.230,north-northwest,1.3,No
2015/04/05,00:20,0.552,0.336,0.581,0.535,0.557,0.256,0.231,north-northwest,1.6,No
2015/04/05,00:30,0.550,0.339,0.580,0.533,0.560,0.257,0.229,north-northwest,1.9,No
2015/04/05,00:40,0.553,0.339,0.579,0.535,0.558,0.257,0.229,north-northwest,2.5,No
2015/04/05,00:50,0.550,0.338,0.581,0.532,0.556,0.256,0.229,north,3.1,No
2015/04/05,01:00,0.551,0.340,0.576,0.533,0.560,0.256,0.229,north,2.8,No
2015/04/05,01:10,0.552,0.339,0.581,0.534,0.558,0.257,0.230,north-northwest,2.6,No
2015/04/05,01:20,0.550,0.340,0.579,0.534,0.558,0.256,0.230,north,2.8,No
2015/04/05,01:30,0.551,0.340,0.576,0.535,0.557,0.256,0.230,north,3.0,No
2015/04/05,01:40,0.549,0.339,0.581,0.534,0.557,0.257,0.229,north,3.1,No
2015/04/05,01:50,0.552,0.339,0.578,0.534,0.561,0.257,0.232,north,3.1,No
2015/04/05,02:00,0.553,0.340,0.582,0.535,0.557,0.257,0.229,north,3.1,No
2015/04/05,02:10,0.551,0.338,0.580,0.533,0.558,0.257,0.228,north,2.8,No
2015/04/05,02:20,0.552,0.339,0.579,0.532,0.560,0.256,0.230,north,3.1,No
2015/04/05,02:30,0.550,0.339,0.582,0.535,0.557,0.257,0.229,north,3.7,No
2015/04/05,02:40,0.551,0.338,0.579,0.534,0.557,0.256,0.228,north,3.6,No
2015/04/05,02:50,0.552,0.340,0.578,0.535,0.560,0.256,0.230,north,3.1,No
2015/04/05,03:00,0.550,0.340,0.581,0.536,0.558,0.256,0.229,north,3.9,No
2015/04/05,03:10,0.553,0.339,0.579,0.534,0.558,0.256,0.230,north,3.2,No
2015/04/05,03:20,0.551,0.339,0.581,0.533,0.559,0.256,0.229,north-northwest,2.5,No
2015/04/05,03:30,0.549,0.340,0.580,0.535,0.558,0.255,0.229,north-northwest,2.5,No
2015/04/05,03:40,0.555,0.338,0.578,0.532,0.559,0.257,0.230,north-northwest,2.1,No
2015/04/05,03:50,0.551,0.341,0.581,0.535,0.558,0.256,0.229,north-northwest,1.8,No
2015/04/05,04:00,0.553,0.339,0.578,0.533,0.555,0.257,0.231,north-northwest,1.7,No
2015/04/05,04:10,0.552,0.339,0.579,0.534,0.561,0.255,0.230,north-northwest,1.3,No
2015/04/05,04:20,0.549,0.340,0.580,0.535,0.557,0.257,0.230,north-northwest,1.9,No
2015/04/05,04:30,0.553,0.338,0.576,0.532,0.557,0.258,0.229,north-northwest,2.5,Yes
2015/04/05,04:40,0.549,0.340,0.581,0.536,0.558,0.256,0.230,north-northwest,1.9,No
2015/04/05,04:50,0.552,0.340,0.579,0.533,0.557,0.257,0.229,north-northwest,2.5,No
2015/04/05,05:00,0.551,0.339,0.576,0.534,0.560,0.257,0.230,north-northwest,2.6,No
2015/04/05,05:10,0.548,0.340,0.583,0.536,0.559,0.257,0.230,northwest,2.8,No
2015/04/05,05:20,0.553,0.339,0.579,0.534,0.557,0.256,0.229,north-northwest,2.5,No
2015/04/05,05:30,0.551,0.339,0.578,0.536,0.560,0.258,0.229,north-northwest,2.5,No
2015/04/05,05:40,0.550,0.341,0.581,0.536,0.559,0.257,0.231,north-northwest,1.9,Yes
2015/04/05,05:50,0.555,0.339,0.579,0.532,0.554,0.257,0.229,north-northwest,1.9,Yes
2015/04/05,06:00,0.552,0.339,0.579,0.535,0.561,0.258,0.230,northwest,1.8,Yes
2015/04/05,06:10,0.553,0.342,0.580,0.535,0.558,0.259,0.231,north-northwest,1.7,Yes
2015/04/05,06:20,0.554,0.341,0.581,0.533,0.558,0.258,0.233,north-northwest,1.9,Yes
2015/04/05,06:30,0.555,0.341,0.583,0.534,0.560,0.258,0.233,north-northwest,2.7,Yes
2015/04/05,06:40,0.555,0.342,0.581,0.536,0.559,0.259,0.233,north,4.8,Yes
2015/04/05,06:50,0.554,0.342,0.580,0.533,0.559,0.261,0.233,north,2.8,Yes
2015/04/05,07:00,0.553,0.344,0.582,0.537,0.561,0.260,0.234,north,3.3,Yes
2015/04/05,07:10,0.553,0.342,0.579,0.533,0.558,0.259,0.233,north,3.4,Yes
2015/04/05,07:20,0.550,0.344,0.577,0.531,0.558,0.260,0.233,north,2.5,Yes
2015/04/05,07:30,0.553,0.343,0.579,0.534,0.560,0.259,0.231,north,3.3,Yes
2015/04/05,07:40,0.552,0.342,0.579,0.533,0.557,0.258,0.232,north,4.0,Yes
2015/04/05,07:50,0.550,0.341,0.576,0.530,0.556,0.261,0.235,north,3.9,Yes
2015/04/05,08:00,0.552,0.342,0.578,0.531,0.557,0.263,0.234,north,3.3,Yes
2015/04/05,08:10,0.551,0.343,0.576,0.530,0.557,0.261,0.233,north,3.8,Yes
2015/04/05,08:20,0.547,0.340,0.575,0.529,0.555,0.261,0.233,north,4.0,Yes
2015/04/05,08:30,0.552,0.340,0.577,0.529,0.557,0.260,0.232,north,4.0,Yes
2015/04/05,08:40,0.549,0.340,0.573,0.527,0.554,0.258,0.230,north,3.3,Yes
2015/04/05,08:50,0.548,0.339,0.574,0.526,0.555,0.258,0.230,north,3.3,Yes
2015/04/05,09:00,0.551,0.340,0.573,0.530,0.557,0.259,0.230,north,3.5,Yes
2015/04/05,09:10,0.548,0.340,0.570,0.527,0.552,0.258,0.231,north,3.0,Yes
2015/04/05,09:20,0.546,0.339,0.572,0.526,0.555,0.260,0.231,north,3.4,Yes
2015/04/05,09:30,0.551,0.340,0.572,0.526,0.557,0.259,0.231,north,2.8,Yes
2015/04/05,09:40,0.546,0.343,0.569,0.525,0.553,0.258,0.230,north,2.5,Yes
2015/04/05,09:50,0.546,0.339,0.570,0.528,0.554,0.258,0.230,north-northwest,2.7,Yes
2015/04/05,10:00,0.547,0.340,0.570,0.526,0.555,0.258,0.231,north,2.9,Yes
2015/04/05,10:10,0.545,0.338,0.566,0.525,0.552,0.258,0.229,north,2.5,Yes
2015/04/05,10:20,0.546,0.337,0.570,0.526,0.554,0.257,0.230,north-northwest,2.5,Yes
2015/04/05,10:30,0.546,0.336,0.568,0.524,0.554,0.256,0.228,north,2.6,Yes
2015/04/05,10:40,0.543,0.338,0.566,0.521,0.552,0.257,0.230,north-northwest,2.2,Yes
2015/04/05,10:50,0.546,0.337,0.571,0.525,0.553,0.256,0.228,north,2.2,Yes
2015/04/05,11:00,0.543,0.337,0.567,0.522,0.554,0.255,0.227,north,2.3,Yes
2015/04/05,11:10,0.543,0.337,0.565,0.521,0.551,0.255,0.229,north-northwest,2.5,Yes
2015/04/05,11:20,0.546,0.336,0.568,0.523,0.553,0.255,0.227,north-northwest,2.5,Yes
2015/04/05,11:30,0.541,0.338,0.564,0.521,0.551,0.255,0.226,north,2.7,Yes
2015/04/05,11:40,0.544,0.335,0.566,0.520,0.549,0.255,0.227,north-northwest,2.9,Yes
2015/04/05,11:50,0.541,0.336,0.568,0.522,0.551,0.254,0.227,north,3.1,Yes
2015/04/05,12:00,0.542,0.336,0.566,0.520,0.549,0.255,0.228,north,2.5,Yes
2015/04/05,12:10,0.544,0.336,0.568,0.522,0.551,0.255,0.226,north-northwest,3.1,Yes
2015/04/05,12:20,0.542,0.336,0.566,0.519,0.551,0.255,0.225,north-northwest,2.9,Yes
2015/04/05,12:30,0.540,0.335,0.566,0.520,0.550,0.255,0.225,north-northwest,2.9,Yes
2015/04/05,12:40,0.543,0.335,0.565,0.521,0.552,0.254,0.225,north-northwest,3.2,Yes
2015/04/05,12:50,0.540,0.334,0.563,0.517,0.550,0.254,0.225,north-northwest,3.1,Yes
2015/04/05,13:00,0.541,0.336,0.565,0.520,0.551,0.254,0.226,north,3.3,Yes
2015/04/05,13:10,0.543,0.335,0.565,0.519,0.552,0.254,0.226,north-northwest,3.0,Yes
2015/04/05,13:20,0.541,0.335,0.563,0.519,0.550,0.253,0.225,north-northwest,3.3,Yes
2015/04/05,13:30,0.539,0.337,0.564,0.522,0.550,0.254,0.227,north-northwest,2.9,Yes
2015/04/05,13:40,0.542,0.336,0.564,0.520,0.550,0.254,0.225,north,3.6,Yes
2015/04/05,13:50,0.540,0.336,0.561,0.521,0.549,0.255,0.227,north-northwest,3.7,Yes
2015/04/05,14:00,0.544,0.337,0.562,0.521,0.550,0.255,0.225,north-northwest,3.8,Yes
2015/04/05,14:10,0.540,0.335,0.562,0.519,0.550,0.254,0.224,north-northwest,3.8,Yes
2015/04/05,14:20,0.540,0.334,0.559,0.520,0.549,0.254,0.226,north-northwest,3.3,Yes
2015/04/05,14:30,0.541,0.335,0.562,0.518,0.552,0.253,0.224,north-northwest,3.6,Yes
2015/04/05,14:40,0.539,0.334,0.561,0.519,0.549,0.253,0.224,north-northwest,3.5,Yes
2015/04/05,14:50,0.542,0.335,0.563,0.518,0.552,0.254,0.223,north,3.5,Yes
2015/04/05,15:00,0.539,0.334,0.560,0.517,0.550,0.253,0.223,north-northwest,3.8,Yes
2015/04/05,15:10,0.538,0.333,0.561,0.519,0.549,0.252,0.223,north,3.3,No
2015/04/05,15:20,0.541,0.334,0.562,0.516,0.551,0.251,0.223,north,3.0,No
2015/04/05,15:30,0.538,0.331,0.560,0.517,0.547,0.251,0.222,north,3.5,No
2015/04/05,15:40,0.537,0.333,0.561,0.517,0.550,0.251,0.222,north,3.3,No
2015/04/05,15:50,0.539,0.332,0.559,0.517,0.550,0.251,0.221,north,3.3,No
2015/04/05,16:00,0.538,0.332,0.559,0.519,0.548,0.251,0.223,north,3.0,Yes
2015/04/05,16:10,0.539,0.332,0.562,0.516,0.549,0.250,0.220,north,3.6,Yes
2015/04/05,16:20,0.541,0.332,0.558,0.518,0.547,0.251,0.221,north,3.5,No
2015/04/05,16:30,0.538,0.330,0.564,0.515,0.551,0.250,0.222,north,3.7,No
2015/04/05,16:40,0.538,0.332,0.560,0.516,0.546,0.251,0.220,north,3.6,No
2015/04/05,16:50,0.538,0.329,0.560,0.517,0.548,0.249,0.220,north,3.7,No
2015/04/05,17:00,0.538,0.331,0.561,0.513,0.548,0.250,0.221,north,3.6,No
2015/04/05,17:10,0.541,0.330,0.560,0.516,0.548,0.250,0.221,north,3.8,No
2015/04/05,17:20,0.535,0.330,0.563,0.517,0.549,0.250,0.221,north,4.2,No
2015/04/05,17:30,0.538,0.332,0.559,0.514,0.547,0.250,0.222,north,3.3,No
2015/04/05,17:40,0.540,0.329,0.561,0.517,0.548,0.249,0.221,north,3.1,No
2015/04/05,17:50,0.537,0.329,0.561,0.517,0.547,0.248,0.221,north,3.6,No
2015/04/05,18:00,0.540,0.332,0.558,0.515,0.547,0.251,0.221,north,4.2,Yes
2015/04/05,18:10,0.539,0.331,0.565,0.518,0.550,0.250,0.221,north-northwest,3.8,Yes
2015/04/05,18:20,0.538,0.333,0.560,0.517,0.547,0.252,0.223,north-northwest,3.8,Yes
2015/04/05,18:30,0.544,0.336,0.564,0.522,0.552,0.254,0.225,north-northwest,3.5,Yes
2015/04/05,18:40,0.543,0.336,0.565,0.519,0.555,0.256,0.228,north-northwest,2.9,Yes
2015/04/05,18:50,0.543,0.337,0.561,0.523,0.552,0.257,0.227,north-northwest,2.9,Yes
2015/04/05,19:00,0.542,0.338,0.564,0.521,0.552,0.257,0.227,north-northwest,2.3,Yes
2015/04/05,19:10,0.542,0.336,0.562,0.519,0.552,0.256,0.227,north,2.5,Yes
2015/04/05,19:20,0.544,0.339,0.564,0.520,0.552,0.258,0.228,north-northwest,1.7,Yes
2015/04/05,19:30,0.541,0.337,0.564,0.518,0.554,0.258,0.228,north,1.7,Yes
2015/04/05,19:40,0.543,0.337,0.561,0.519,0.551,0.258,0.230,north-northwest,1.6,Yes
2015/04/05,19:50,0.542,0.338,0.563,0.518,0.553,0.257,0.229,north-northwest,1.1,Yes
2015/04/05,20:00,0.542,0.336,0.562,0.517,0.550,0.258,0.227,north-northwest,1.3,Yes
2015/04/05,20:10,0.543,0.339,0.563,0.518,0.553,0.256,0.227,north-northwest,0.8,Yes
2015/04/05,20:20,0.538,0.337,0.562,0.517,0.553,0.256,0.226,-,CALM,No
2015/04/05,20:30,0.541,0.333,0.557,0.514,0.550,0.254,0.224,-,CALM,No
2015/04/05,20:40,0.540,0.335,0.559,0.517,0.550,0.253,0.225,south-southwest,1.4,Yes
2015/04/05,20:50,0.537,0.332,0.558,0.516,0.549,0.251,0.222,south,2.2,Yes
2015/04/05,21:00,0.538,0.331,0.557,0.514,0.547,0.251,0.222,south-southeast,2.1,Yes
2015/04/05,21:10,0.536,0.333,0.558,0.516,0.548,0.251,0.221,south-southeast,3.8,Yes
2015/04/05,21:20,0.537,0.330,0.554,0.511,0.543,0.251,0.221,south,4.5,Yes
2015/04/05,21:30,0.534,0.330,0.557,0.515,0.547,0.249,0.220,south,5.1,No
2015/04/05,21:40,0.534,0.331,0.557,0.512,0.548,0.249,0.221,south,3.8,No
2015/04/05,21:50,0.537,0.330,0.555,0.512,0.545,0.249,0.220,south,4.4,No
2015/04/05,22:00,0.533,0.331,0.559,0.514,0.547,0.249,0.219,south,4.2,No
2015/04/05,22:10,0.537,0.328,0.555,0.512,0.545,0.248,0.219,south-southwest,3.8,No
2015/04/05,22:20,0.533,0.329,0.556,0.513,0.546,0.248,0.220,south-southwest,3.2,No
2015/04/05,22:30,0.536,0.329,0.555,0.512,0.547,0.249,0.221,southwest,0.8,No
2015/04/05,22:40,0.537,0.327,0.555,0.511,0.547,0.248,0.220,south,1.1,No
2015/04/05,22:50,0.534,0.330,0.559,0.514,0.549,0.249,0.219,southwest,0.6,No
2015/04/05,23:00,0.536,0.329,0.554,0.509,0.545,0.248,0.218,south-southwest,1.0,No
2015/04/05,23:10,0.534,0.329,0.557,0.513,0.547,0.248,0.219,southwest,0.6,No
2015/04/05,23:20,0.536,0.331,0.555,0.511,0.546,0.249,0.218,south-southeast,0.6,No
2015/04/05,23:30,0.534,0.329,0.553,0.510,0.546,0.248,0.219,south-southeast,1.1,No
2015/04/05,23:40,0.536,0.330,0.558,0.511,0.547,0.248,0.220,south,1.9,No
2015/04/05,23:50,0.534,0.329,0.555,0.511,0.546,0.248,0.219,-,CALM,No
